Location: Lake Arresoe
(56.0000°N, 12.5000°E)
Time: 09:11:39
(UTC+02:00)

Cosmos 1674 - Pass Details

Date: 22 August 2020
Orbit: 495 x 517 km, 82.5° (Epoch: 23 September)

Event Time Altitude Azimuth Distance (km) Brightness Sun altitude
Rises 00:38:15 0° 348° (NNW) 2,610 7.8 -21.9°
Reaches altitude 10° 00:40:23 10° 350° (N) 1,724 6.5 -22.0°
Enters shadow 00:44:07 78° 67° (ENE) 524 2.6 -22.0°
